Location: Baili�vre
(50.0696°N, 4.2409°E)
Time: 09:54:31
(UTC+00:00)

COSMOS 2406 - Pass Details

Date: 08 August 2020
Orbit: 845 x 862 km, 71.0° (Epoch: 20 September)

Event Time Altitude Azimuth Distance (km) Brightness Sun altitude
Rises 19:46:57 0° 189° (S) 3,424 6.1 -5.5°
Reaches altitude 10° 19:49:28 10° 184° (S) 2,490 5.4 -5.8°
Maximum altitude 19:54:58 50° 111° (ESE) 1,080 3.4 -6.6°
Drops below altitude 10° 20:00:29 10° 37° (NE) 2,497 5.7 -7.3°
Sets 20:03:00 0° 33° (NNE) 3,435 6.4 -7.6°
